Location: Kaltenbach
(49.2000°N, 7.7500°E)
Time: 09:37:47
(UTC+00:00)

SL-16 R/B - Pass Details

Date: 24 January 2020
Orbit: 841 x 848 km, 71.0° (Epoch: 16 February)

Event Time Altitude Azimuth Distance (km) Brightness Sun altitude
Rises 17:20:29 0° 332° (NNW) 3,421 5.5 -11.2°
Reaches altitude 10° 17:22:59 10° 336° (NNW) 2,481 4.7 -11.6°
Maximum altitude 17:28:38 63° 58° (ENE) 941 2.2 -12.5°
Drops below altitude 10° 17:34:14 10° 139° (SE) 2,461 4.4 -13.3°
Sets 17:36:42 0° 143° (SE) 3,391 5.1 -13.7°
